Погода в Тоншалове

Россия / Вологодская область     59°11′38″N   37°56′55″E
темп.,
°C
ветер,
м/с
пор.,
м/с
влажн.,
%
обл.,
%
осадки,
мм/ч
давл.,
гПа
погр.,
м
17 апреля, сб
сб1700:00+4всв412795 0.0 1030296
03:00+2всв4108636 0.0 1031216
06:00+2всв4108813 0.0 1031227
09:00+7всв59655 0.0 1031520
12:00+11всв57485 0.0 10301045
15:00+12всв56430 0.0 10291299
18:00+11всв47520 0.0 1028891
21:00+6св39730 0.0 1029189
18 апреля, вс
вс1800:00+4св39810 0.0 1029183
03:00+3св39840 0.0 1030171
06:00+2св398422 0.0 1030201
09:00+7всв4766100 0.0 1030451
12:00+10всв6756100 0.0 10291072
15:00+10всв5852100 0.0 10291275
18:00+10всв4860100 0.0 10291072
21:00+6всв51078100 0.0 1031519
19 апреля, пн
пн1900:00+4всв4117757 0.0 1031535
03:00+2всв49875 0.0 1032260
06:000всв49805 0.0 1032263
09:00+5в69530 0.0 1032703
12:00+8в67435 0.0 10321443
15:00+9в67385 0.0 10311756
18:00+8в57455 0.0 10301471
21:00+4всв39675 0.0 1031202
20 апреля, вт
вт2000:00+2в4107157 0.0 1031265
03:00+1в410740 0.0 1030238
06:000в41172100 0.0 1030322
09:00+4в61051100 0.0 1028787
12:00+8вюв6946100 0.0 10271359
15:00+10вюв694893 0.0 10241642
18:00+9в61154100 0.0 10211366
21:00+7в61360100 0.0 1020550
21 апреля, ср
ср2100:00+5в71460100 0.0 1016742
03:00+4в81662100 0.1 1012853
06:00+4в81780100 1.4 1009963
09:00+3вюв81696100 3.6 1007816
12:00+3вюв81695100 1.2 1005803
15:00+6вюв81790100 2.1 10031027
18:00+6ю81485100 0.6 10031147
21:00+5ююв91782100 0.6 10041176